Location: Newark
(7.0858°N, 171.3717°E)
Time: 03:05:47
(UTC+00:00)

Transit 4A - Pass Details

Date: 05 December 2020
Orbit: 864 x 980 km, 66.8° (Epoch: 20 January)

Event Time Altitude Azimuth Distance (km) Brightness Sun altitude
Rises 05:50:32 0° 328° (NNW) 3,587 11.1 5.2°
Reaches altitude 10° 05:53:12 10° 321° (NW) 2,626 10.5 4.6°
Maximum altitude 05:58:55 43° 252° (WSW) 1,261 9.6 3.3°
Drops below altitude 10° 06:04:29 10° 182° (S) 2,553 10.6 2.1°
Sets 06:07:04 0° 175° (S) 3,478 11.1 1.5°
